Location: Area 52 Observatory
(34.2620°N, 119.2590°W)
Time: 21:05:09
(UTC-07:00)

Hubble Space Telescope - Visible Passes

Search period start: 20 March 2019 00:00
Search period end: 30 March 2019 00:00
Orbit: 537 x 540 km, 28.5° (Epoch: 19 March)

Date Brightness Start Highest point End Pass type
(mag) Time Alt. Az. Time Alt. Az. Time Alt. Az.
23 Mar 3.0 19:44:56 10° S 19:46:08 11° SSE 19:47:20 10° SE visible
23 Mar 3.4 21:23:14 10° SW 21:23:46 13° SW 21:23:46 13° SW visible
24 Mar 2.9 19:33:24 10° S 19:35:32 14° SSE 19:37:40 10° SE visible
24 Mar 2.8 21:12:34 10° SW 21:14:11 20° SW 21:14:11 20° SW visible
25 Mar 2.2 21:01:57 10° WSW 21:04:31 27° SSW 21:04:31 27° SSW visible
26 Mar 1.7 20:51:21 10° WSW 20:54:48 34° S 20:54:48 34° S visible
27 Mar 1.5 20:40:47 10° WSW 20:44:36 36° S 20:45:02 35° SSE visible
28 Mar 1.6 20:30:15 10° WSW 20:34:04 37° S 20:35:13 30° SE visible
29 Mar 1.6 20:19:43 10° WSW 20:23:33 36° S 20:25:23 24° SE visible
